Location: Boiro
(42.6475°N, 8.8834°W)
Time: 12:50:41
(UTC+02:00)

COSMOS 2251 DEB - Pass Details

Date: 07 July 2022
Orbit: 738 x 847 km, 74.1° (Epoch: 16 August)

Event Time Altitude Azimuth Distance (km) Brightness Sun altitude
Rises 05:25:25 0° 348° (NNW) 3,216 ? -14.5°
Reaches altitude 10° 05:28:06 10° 360° (N) 2,274 ? -14.2°
Maximum altitude 05:32:33 29° 60° (ENE) 1,338 ? -13.7°
Drops below altitude 10° 05:36:56 10° 121° (ESE) 2,241 ? -13.1°
Sets 05:39:33 0° 132° (SE) 3,160 ? -12.8°
